Terminal Aerodrome Forecast
Issued by NWS

Home | Current Version | Previous Version | Text Only | Print | Product List | Glossary On
Versions: 1 2 3 4 5 6 7 8 9 10 11 12 13 14 15 16
000
FTUS46 KLOX 060152 AAA
TAFWJF
TAF AMD
KWJF 060152Z 0602/0624 29012KT P6SM SKC
     FM060400 25014KT P6SM SKC
     FM060600 24008KT P6SM SKC
     FM061000 VRB05KT P6SM SKC
     FM061500 24012KT P6SM SKC
     FM061800 24014G22KT P6SM SKC
     FM062100 23020G30KT P6SM SKC=

USA.gov is the U.S. government's official web portal to all federal, state and local government web resources and services.